Location: Pompeys Pillar
(45.9913°N, 107.9528°W)
Time: 04:54:07
(UTC+00:00)

Tiros 1 - Pass Details

Date: 30 May 2022
Orbit: 629 x 663 km, 48.4° (Epoch: 30 June)

Event Time Altitude Azimuth Distance (km) Brightness Sun altitude
Rises 07:18:22 0° 246° (WSW) 2,907 - -22.2°
Reaches altitude 10° 07:20:40 10° 245° (WSW) 2,003 - -22.2°
Exits shadow 07:24:23 58° 234° (SW) 740 7.1 -22.1°
Maximum altitude 07:25:17 81° 159° (SSE) 644 6.9 -22.1°
Drops below altitude 10° 07:29:56 10° 72° (ENE) 2,021 9.9 -22.1°
Sets 07:32:16 0° 72° (ENE) 2,935 10.8 -22.0°
